Tracking 30109 objects as of 12-Dec-2024
HD Live streaming from Space Station
objects crossing your sky now

STARLINK-6058

Track STARLINK-6058 now!
10-day predictions
STARLINK-6058 is classified as:


NORAD ID: 56797
Int'l Code: 2023-078AG
Perigee: 577.0 km
Apogee: 581.4 km
Inclination: 70.0 °
Period: 96.1 minutes
Semi major axis: 6950 km
RCS: Unknown
Launch date: May 31, 2023
Source: United States (US)
Launch site: AIR FORCE WESTERN TEST RANGE (AFWTR)
Your satellite tracking list
Your tracking list is empty




NASA's NSSDC Master Catalog

Two Line Element Set (TLE):
1 56797U 23078AG  24346.57498443 -.00001448  00000-0 -11359-3 0  9998
2 56797  70.0005  47.0905 0003206 267.8545  92.2247 14.98329606 85064
Source of the keplerian elements: AFSPC